#datetime,building,power
2023-11-20T00:00:00,atd,23.00
2023-11-20T00:01:00,atd,23.90
2023-11-20T00:02:00,atd,36.56
2023-11-20T00:03:00,atd,24.33
2023-11-20T00:04:00,atd,22.90
2023-11-20T00:05:00,atd,20.73
2023-11-20T00:06:00,atd,21.28
2023-11-20T00:07:00,atd,33.80
2023-11-20T00:08:00,atd,17.69
2023-11-20T00:09:00,atd,17.55
2023-11-20T00:10:00,atd,20.51
2023-11-20T00:11:00,atd,18.56
2023-11-20T00:12:00,atd,19.43
2023-11-20T00:13:00,atd,18.38
2023-11-20T00:14:00,atd,20.61
2023-11-20T00:15:00,atd,19.12
2023-11-20T00:16:00,atd,19.66
2023-11-20T00:17:00,atd,22.36
2023-11-20T00:18:00,atd,20.05
2023-11-20T00:19:00,atd,22.12
2023-11-20T00:20:00,atd,20.11
2023-11-20T00:21:00,atd,20.23
2023-11-20T00:22:00,atd,17.60
2023-11-20T00:23:00,atd,19.46
2023-11-20T00:24:00,atd,17.58
2023-11-20T00:25:00,atd,15.90
2023-11-20T00:26:00,atd,15.01
2023-11-20T00:27:00,atd,15.73
2023-11-20T00:28:00,atd,17.39
2023-11-20T00:29:00,atd,17.31
2023-11-20T00:30:00,atd,18.41
2023-11-20T00:31:00,atd,18.12
2023-11-20T00:32:00,atd,16.32
2023-11-20T00:33:00,atd,21.54
2023-11-20T00:34:00,atd,24.24
2023-11-20T00:35:00,atd,20.51
2023-11-20T00:36:00,atd,21.94
2023-11-20T00:37:00,atd,27.41
2023-11-20T00:38:00,atd,24.09
2023-11-20T00:39:00,atd,20.24
2023-11-20T00:40:00,atd,21.94
2023-11-20T00:41:00,atd,17.03
2023-11-20T00:42:00,atd,17.54
2023-11-20T00:43:00,atd,15.76
2023-11-20T00:44:00,atd,17.89
2023-11-20T00:45:00,atd,17.28
2023-11-20T00:46:00,atd,17.36
2023-11-20T00:47:00,atd,16.82
2023-11-20T00:48:00,atd,20.39
2023-11-20T00:49:00,atd,16.96
2023-11-20T00:50:00,atd,17.66
2023-11-20T00:51:00,atd,17.99
2023-11-20T00:52:00,atd,16.88
2023-11-20T00:53:00,atd,19.22
2023-11-20T00:54:00,atd,15.94
2023-11-20T00:55:00,atd,15.50
2023-11-20T00:56:00,atd,16.65
2023-11-20T00:57:00,atd,17.11
2023-11-20T00:58:00,atd,16.94
2023-11-20T00:59:00,atd,23.33
2023-11-20T01:00:00,atd,21.44
2023-11-20T01:01:00,atd,21.67
2023-11-20T01:02:00,atd,20.98
2023-11-20T01:03:00,atd,21.39
2023-11-20T01:04:00,atd,23.32
2023-11-20T01:05:00,atd,20.87
2023-11-20T01:06:00,atd,21.86
2023-11-20T01:07:00,atd,21.08
2023-11-20T01:08:00,atd,35.15
2023-11-20T01:09:00,atd,20.45
2023-11-20T01:10:00,atd,21.58
2023-11-20T01:11:00,atd,17.48
2023-11-20T01:12:00,atd,24.16
2023-11-20T01:13:00,atd,21.44
2023-11-20T01:14:00,atd,21.54
2023-11-20T01:15:00,atd,22.64
2023-11-20T01:16:00,atd,16.77
2023-11-20T01:17:00,atd,18.57
2023-11-20T01:18:00,atd,17.94
2023-11-20T01:19:00,atd,19.11
2023-11-20T01:20:00,atd,16.38
2023-11-20T01:21:00,atd,19.61
2023-11-20T01:22:00,atd,21.16
2023-11-20T01:23:00,atd,18.85
2023-11-20T01:24:00,atd,17.52
2023-11-20T01:25:00,atd,16.01
2023-11-20T01:26:00,atd,15.87
2023-11-20T01:27:00,atd,18.94
2023-11-20T01:28:00,atd,44.81
2023-11-20T01:29:00,atd,33.49
2023-11-20T01:30:00,atd,30.60
2023-11-20T01:31:00,atd,31.92
2023-11-20T01:32:00,atd,26.99
2023-11-20T01:33:00,atd,17.54
2023-11-20T01:34:00,atd,15.70
2023-11-20T01:35:00,atd,16.09
2023-11-20T01:36:00,atd,19.73
2023-11-20T01:37:00,atd,19.30
2023-11-20T01:38:00,atd,18.59
2023-11-20T01:39:00,atd,15.80
2023-11-20T01:40:00,atd,19.82
2023-11-20T01:41:00,atd,17.33
2023-11-20T01:42:00,atd,21.43
2023-11-20T01:43:00,atd,21.49
2023-11-20T01:44:00,atd,31.55
2023-11-20T01:45:00,atd,28.51
2023-11-20T01:46:00,atd,27.26
2023-11-20T01:47:00,atd,42.55
2023-11-20T01:48:00,atd,20.64
2023-11-20T01:49:00,atd,22.38
2023-11-20T01:50:00,atd,15.35
2023-11-20T01:51:00,atd,15.16
2023-11-20T01:52:00,atd,17.84
2023-11-20T01:53:00,atd,17.57
2023-11-20T01:54:00,atd,16.50
2023-11-20T01:55:00,atd,15.87
2023-11-20T01:56:00,atd,16.33
2023-11-20T01:57:00,atd,19.49
2023-11-20T01:58:00,atd,16.18
2023-11-20T01:59:00,atd,17.98
2023-11-20T02:00:00,atd,22.54
2023-11-20T02:01:00,atd,23.63
2023-11-20T02:02:00,atd,20.21
2023-11-20T02:03:00,atd,23.70
2023-11-20T02:04:00,atd,23.38
2023-11-20T02:05:00,atd,24.62
2023-11-20T02:06:00,atd,19.97
2023-11-20T02:07:00,atd,35.09
2023-11-20T02:08:00,atd,19.04
2023-11-20T02:09:00,atd,17.65
2023-11-20T02:10:00,atd,18.69
2023-11-20T02:11:00,atd,17.67
2023-11-20T02:12:00,atd,17.54
2023-11-20T02:13:00,atd,22.30
2023-11-20T02:14:00,atd,20.62
2023-11-20T02:15:00,atd,19.76
2023-11-20T02:16:00,atd,20.76
2023-11-20T02:17:00,atd,19.60
2023-11-20T02:18:00,atd,22.78
2023-11-20T02:19:00,atd,23.41
2023-11-20T02:20:00,atd,21.54
2023-11-20T02:21:00,atd,25.69
2023-11-20T02:22:00,atd,25.22
2023-11-20T02:23:00,atd,17.30
2023-11-20T02:24:00,atd,16.66
2023-11-20T02:25:00,atd,26.91
2023-11-20T02:26:00,atd,16.16
2023-11-20T02:27:00,atd,28.33
2023-11-20T02:28:00,atd,20.48
2023-11-20T02:29:00,atd,17.69
2023-11-20T02:30:00,atd,16.88
2023-11-20T02:31:00,atd,15.61
2023-11-20T02:32:00,atd,18.77
2023-11-20T02:33:00,atd,17.55
2023-11-20T02:34:00,atd,17.72
2023-11-20T02:35:00,atd,18.85
2023-11-20T02:36:00,atd,21.02
2023-11-20T02:37:00,atd,22.96
2023-11-20T02:38:00,atd,21.10
2023-11-20T02:39:00,atd,19.71
2023-11-20T02:40:00,atd,19.45
2023-11-20T02:41:00,atd,22.45
2023-11-20T02:42:00,atd,18.27
2023-11-20T02:43:00,atd,19.26
2023-11-20T02:44:00,atd,17.56
2023-11-20T02:45:00,atd,22.25
2023-11-20T02:46:00,atd,21.93
2023-11-20T02:47:00,atd,29.69
2023-11-20T02:48:00,atd,20.00
2023-11-20T02:49:00,atd,19.46
2023-11-20T02:50:00,atd,19.20
2023-11-20T02:51:00,atd,17.88
2023-11-20T02:52:00,atd,22.75
2023-11-20T02:53:00,atd,20.46
2023-11-20T02:54:00,atd,20.46
2023-11-20T02:55:00,atd,20.59
2023-11-20T02:56:00,atd,18.56
2023-11-20T02:57:00,atd,19.50
2023-11-20T02:58:00,atd,17.69
2023-11-20T02:59:00,atd,19.99
2023-11-20T03:00:00,atd,18.67
2023-11-20T03:01:00,atd,18.37
2023-11-20T03:02:00,atd,17.20
2023-11-20T03:03:00,atd,17.14
2023-11-20T03:04:00,atd,17.45
2023-11-20T03:05:00,atd,15.49
2023-11-20T03:06:00,atd,17.34
2023-11-20T03:07:00,atd,18.41
2023-11-20T03:08:00,atd,18.32
2023-11-20T03:09:00,atd,18.88
2023-11-20T03:10:00,atd,23.19
2023-11-20T03:11:00,atd,21.07
2023-11-20T03:12:00,atd,23.40
2023-11-20T03:13:00,atd,20.04
2023-11-20T03:14:00,atd,25.08
2023-11-20T03:15:00,atd,17.66
2023-11-20T03:16:00,atd,17.50
2023-11-20T03:17:00,atd,15.92
2023-11-20T03:18:00,atd,17.71
2023-11-20T03:19:00,atd,20.15
2023-11-20T03:20:00,atd,16.24
2023-11-20T03:21:00,atd,20.03
2023-11-20T03:22:00,atd,17.50
2023-11-20T03:23:00,atd,19.12
2023-11-20T03:24:00,atd,17.82
2023-11-20T03:25:00,atd,19.47
2023-11-20T03:26:00,atd,30.16
2023-11-20T03:27:00,atd,22.35
2023-11-20T03:28:00,atd,21.74
2023-11-20T03:29:00,atd,20.28
2023-11-20T03:30:00,atd,20.07
2023-11-20T03:31:00,atd,19.10
2023-11-20T03:32:00,atd,14.08
2023-11-20T03:33:00,atd,14.45
2023-11-20T03:34:00,atd,15.89
2023-11-20T03:35:00,atd,17.91
2023-11-20T03:36:00,atd,19.85
2023-11-20T03:37:00,atd,18.29
2023-11-20T03:38:00,atd,20.25
2023-11-20T03:39:00,atd,19.01
2023-11-20T03:40:00,atd,18.73
2023-11-20T03:41:00,atd,16.36
2023-11-20T03:42:00,atd,18.85
2023-11-20T03:43:00,atd,18.70
2023-11-20T03:44:00,atd,24.19
2023-11-20T03:45:00,atd,20.64
2023-11-20T03:46:00,atd,34.91
2023-11-20T03:47:00,atd,22.96
2023-11-20T03:48:00,atd,19.96
2023-11-20T03:49:00,atd,16.08
2023-11-20T03:50:00,atd,14.77
2023-11-20T03:51:00,atd,17.21
2023-11-20T03:52:00,atd,18.54
2023-11-20T03:53:00,atd,17.37
2023-11-20T03:54:00,atd,15.91
2023-11-20T03:55:00,atd,17.66
2023-11-20T03:56:00,atd,20.64
2023-11-20T03:57:00,atd,19.21
2023-11-20T03:58:00,atd,21.69
2023-11-20T03:59:00,atd,20.57
2023-11-20T04:00:00,atd,19.54
2023-11-20T04:01:00,atd,19.46
2023-11-20T04:02:00,atd,21.25
2023-11-20T04:03:00,atd,20.89
2023-11-20T04:04:00,atd,24.39
2023-11-20T04:05:00,atd,20.88
2023-11-20T04:06:00,atd,21.20
2023-11-20T04:07:00,atd,16.33
2023-11-20T04:08:00,atd,31.48
2023-11-20T04:09:00,atd,17.55
2023-11-20T04:10:00,atd,19.03
2023-11-20T04:11:00,atd,17.42
2023-11-20T04:12:00,atd,17.69
2023-11-20T04:13:00,atd,15.51
2023-11-20T04:14:00,atd,16.06
2023-11-20T04:15:00,atd,17.80
2023-11-20T04:16:00,atd,15.84
2023-11-20T04:17:00,atd,15.32
2023-11-20T04:18:00,atd,21.86
2023-11-20T04:19:00,atd,21.16
2023-11-20T04:20:00,atd,23.57
2023-11-20T04:21:00,atd,22.47
2023-11-20T04:22:00,atd,22.76
2023-11-20T04:23:00,atd,20.88
2023-11-20T04:24:00,atd,17.98
2023-11-20T04:25:00,atd,18.38
2023-11-20T04:26:00,atd,16.20
2023-11-20T04:27:00,atd,15.88
2023-11-20T04:28:00,atd,17.11
2023-11-20T04:29:00,atd,16.26
2023-11-20T04:30:00,atd,16.22
2023-11-20T04:31:00,atd,17.49
2023-11-20T04:32:00,atd,18.77
2023-11-20T04:33:00,atd,16.55
2023-11-20T04:34:00,atd,17.48
2023-11-20T04:35:00,atd,21.30
2023-11-20T04:36:00,atd,22.57
2023-11-20T04:37:00,atd,24.31
2023-11-20T04:38:00,atd,25.37
2023-11-20T04:39:00,atd,25.50
2023-11-20T04:40:00,atd,23.82
2023-11-20T04:41:00,atd,22.04
2023-11-20T04:42:00,atd,22.47
2023-11-20T04:43:00,atd,19.40
2023-11-20T04:44:00,atd,18.24
2023-11-20T04:45:00,atd,17.99
2023-11-20T04:46:00,atd,18.40
2023-11-20T04:47:00,atd,16.92
2023-11-20T04:48:00,atd,14.39
2023-11-20T04:49:00,atd,15.09
2023-11-20T04:50:00,atd,15.32
2023-11-20T04:51:00,atd,29.80
2023-11-20T04:52:00,atd,30.33
2023-11-20T04:53:00,atd,37.72
2023-11-20T04:54:00,atd,31.32
2023-11-20T04:55:00,atd,19.09
2023-11-20T04:56:00,atd,28.34
2023-11-20T04:57:00,atd,27.50
2023-11-20T04:58:00,atd,24.41
2023-11-20T04:59:00,atd,24.33
2023-11-20T05:00:00,atd,18.72
2023-11-20T05:01:00,atd,23.81
2023-11-20T05:02:00,atd,22.54
2023-11-20T05:03:00,atd,17.66
2023-11-20T05:04:00,atd,21.70
2023-11-20T05:05:00,atd,17.06
2023-11-20T05:06:00,atd,17.06
2023-11-20T05:07:00,atd,16.62
2023-11-20T05:08:00,atd,18.09
2023-11-20T05:09:00,atd,18.65
2023-11-20T05:10:00,atd,19.89
2023-11-20T05:11:00,atd,18.67
2023-11-20T05:12:00,atd,23.31
2023-11-20T05:13:00,atd,22.39
2023-11-20T05:14:00,atd,22.68
2023-11-20T05:15:00,atd,21.73
2023-11-20T05:16:00,atd,16.90
2023-11-20T05:17:00,atd,19.16
2023-11-20T05:18:00,atd,21.52
2023-11-20T05:19:00,atd,16.29
2023-11-20T05:20:00,atd,17.58
2023-11-20T05:21:00,atd,17.80
2023-11-20T05:22:00,atd,17.78
2023-11-20T05:23:00,atd,17.88
2023-11-20T05:24:00,atd,18.12
2023-11-20T05:25:00,atd,20.57
2023-11-20T05:26:00,atd,19.01
2023-11-20T05:27:00,atd,19.44
2023-11-20T05:28:00,atd,21.69
2023-11-20T05:29:00,atd,24.65
2023-11-20T05:30:00,atd,20.68
2023-11-20T05:31:00,atd,21.30
2023-11-20T05:32:00,atd,26.28
2023-11-20T05:33:00,atd,25.19
2023-11-20T05:34:00,atd,21.98
2023-11-20T05:35:00,atd,23.38
2023-11-20T05:36:00,atd,22.60
2023-11-20T05:37:00,atd,26.82
2023-11-20T05:38:00,atd,24.48
2023-11-20T05:39:00,atd,22.86
2023-11-20T05:40:00,atd,22.91
2023-11-20T05:41:00,atd,20.93
2023-11-20T05:42:00,atd,22.69
2023-11-20T05:43:00,atd,24.77
2023-11-20T05:44:00,atd,25.14
2023-11-20T05:45:00,atd,27.76
2023-11-20T05:46:00,atd,25.88
2023-11-20T05:47:00,atd,25.66
2023-11-20T05:48:00,atd,23.20
2023-11-20T05:49:00,atd,23.48
2023-11-20T05:50:00,atd,21.81
2023-11-20T05:51:00,atd,33.18
2023-11-20T05:52:00,atd,23.35
2023-11-20T05:53:00,atd,24.89
2023-11-20T05:54:00,atd,24.05
2023-11-20T05:55:00,atd,21.94
2023-11-20T05:56:00,atd,24.54
2023-11-20T05:57:00,atd,22.87
2023-11-20T05:58:00,atd,23.31
2023-11-20T05:59:00,atd,22.37
2023-11-20T06:00:00,atd,23.45
2023-11-20T06:01:00,atd,22.12
2023-11-20T06:02:00,atd,24.94
2023-11-20T06:03:00,atd,30.14
2023-11-20T06:04:00,atd,28.29
2023-11-20T06:05:00,atd,25.74
2023-11-20T06:06:00,atd,25.29
2023-11-20T06:07:00,atd,24.80
2023-11-20T06:08:00,atd,23.87
2023-11-20T06:09:00,atd,20.81
2023-11-20T06:10:00,atd,24.89
2023-11-20T06:11:00,atd,34.78
2023-11-20T06:12:00,atd,23.15
2023-11-20T06:13:00,atd,21.04
2023-11-20T06:14:00,atd,23.61
2023-11-20T06:15:00,atd,27.04
2023-11-20T06:16:00,atd,26.81
2023-11-20T06:17:00,atd,23.32
2023-11-20T06:18:00,atd,22.47
2023-11-20T06:19:00,atd,25.34
2023-11-20T06:20:00,atd,26.85
2023-11-20T06:21:00,atd,30.32
2023-11-20T06:22:00,atd,25.51
2023-11-20T06:23:00,atd,27.51
2023-11-20T06:24:00,atd,25.15
2023-11-20T06:25:00,atd,29.15
2023-11-20T06:26:00,atd,26.43
2023-11-20T06:27:00,atd,28.21
2023-11-20T06:28:00,atd,24.25
2023-11-20T06:29:00,atd,19.74
2023-11-20T06:30:00,atd,20.75
2023-11-20T06:31:00,atd,24.96
2023-11-20T06:32:00,atd,22.24
2023-11-20T06:33:00,atd,21.68
2023-11-20T06:34:00,atd,22.19
2023-11-20T06:35:00,atd,22.71
2023-11-20T06:36:00,atd,27.81
2023-11-20T06:37:00,atd,25.39
2023-11-20T06:38:00,atd,25.54
2023-11-20T06:39:00,atd,26.83
2023-11-20T06:40:00,atd,26.51
2023-11-20T06:41:00,atd,25.42
2023-11-20T06:42:00,atd,20.66
2023-11-20T06:43:00,atd,24.35
2023-11-20T06:44:00,atd,22.65
2023-11-20T06:45:00,atd,21.67
2023-11-20T06:46:00,atd,24.51
2023-11-20T06:47:00,atd,27.34
2023-11-20T06:48:00,atd,33.89
2023-11-20T06:49:00,atd,23.22
2023-11-20T06:50:00,atd,21.21
2023-11-20T06:51:00,atd,22.46
2023-11-20T06:52:00,atd,23.16
2023-11-20T06:53:00,atd,22.78
2023-11-20T06:54:00,atd,23.35
2023-11-20T06:55:00,atd,22.27
2023-11-20T06:56:00,atd,24.09
2023-11-20T06:57:00,atd,20.66
2023-11-20T06:58:00,atd,22.00
2023-11-20T06:59:00,atd,21.24
2023-11-20T07:00:00,atd,21.73
2023-11-20T07:01:00,atd,25.06
2023-11-20T07:02:00,atd,24.89
2023-11-20T07:03:00,atd,26.97
2023-11-20T07:04:00,atd,27.96
2023-11-20T07:05:00,atd,31.49
2023-11-20T07:06:00,atd,40.98
2023-11-20T07:07:00,atd,32.48
2023-11-20T07:08:00,atd,28.09
2023-11-20T07:09:00,atd,29.02
2023-11-20T07:10:00,atd,29.23
2023-11-20T07:11:00,atd,31.17
2023-11-20T07:12:00,atd,29.24
2023-11-20T07:13:00,atd,26.46
2023-11-20T07:14:00,atd,26.87
2023-11-20T07:15:00,atd,26.63
2023-11-20T07:16:00,atd,29.46
2023-11-20T07:17:00,atd,29.44
2023-11-20T07:18:00,atd,29.84
2023-11-20T07:19:00,atd,27.89
2023-11-20T07:20:00,atd,26.87
2023-11-20T07:21:00,atd,25.55
2023-11-20T07:22:00,atd,26.28
2023-11-20T07:23:00,atd,33.35
2023-11-20T07:24:00,atd,45.05
2023-11-20T07:25:00,atd,26.08
2023-11-20T07:26:00,atd,25.29
2023-11-20T07:27:00,atd,26.85
2023-11-20T07:28:00,atd,25.25
2023-11-20T07:29:00,atd,26.98
2023-11-20T07:30:00,atd,38.58
2023-11-20T07:31:00,atd,38.27
2023-11-20T07:32:00,atd,36.45
2023-11-20T07:33:00,atd,36.80
2023-11-20T07:34:00,atd,38.98
2023-11-20T07:35:00,atd,24.72
2023-11-20T07:36:00,atd,27.39
2023-11-20T07:37:00,atd,22.58
2023-11-20T07:38:00,atd,21.50
2023-11-20T07:39:00,atd,23.81
2023-11-20T07:40:00,atd,19.36
2023-11-20T07:41:00,atd,22.14
2023-11-20T07:42:00,atd,35.11
2023-11-20T07:43:00,atd,25.81
2023-11-20T07:44:00,atd,25.86
2023-11-20T07:45:00,atd,25.78
2023-11-20T07:46:00,atd,31.78
2023-11-20T07:47:00,atd,43.69
2023-11-20T07:48:00,atd,29.96
2023-11-20T07:49:00,atd,27.62
2023-11-20T07:50:00,atd,27.90
2023-11-20T07:51:00,atd,25.82
2023-11-20T07:52:00,atd,27.31
2023-11-20T07:53:00,atd,27.54
2023-11-20T07:54:00,atd,45.02
2023-11-20T07:55:00,atd,28.29
2023-11-20T07:56:00,atd,34.86
2023-11-20T07:57:00,atd,36.89
2023-11-20T07:58:00,atd,35.90
2023-11-20T07:59:00,atd,33.98
2023-11-20T08:00:00,atd,27.91
2023-11-20T08:01:00,atd,27.19
2023-11-20T08:02:00,atd,29.13
2023-11-20T08:03:00,atd,26.97
2023-11-20T08:04:00,atd,28.78
2023-11-20T08:05:00,atd,29.19
2023-11-20T08:06:00,atd,31.87
2023-11-20T08:07:00,atd,26.50
2023-11-20T08:08:00,atd,30.24
2023-11-20T08:09:00,atd,32.19
2023-11-20T08:10:00,atd,27.62
2023-11-20T08:11:00,atd,26.72
2023-11-20T08:12:00,atd,26.65
2023-11-20T08:13:00,atd,25.98
2023-11-20T08:14:00,atd,31.01
2023-11-20T08:15:00,atd,28.19
2023-11-20T08:16:00,atd,31.94
2023-11-20T08:17:00,atd,30.01
2023-11-20T08:18:00,atd,28.09
2023-11-20T08:19:00,atd,28.85
2023-11-20T08:20:00,atd,28.62
2023-11-20T08:21:00,atd,33.17
2023-11-20T08:22:00,atd,39.59
2023-11-20T08:23:00,atd,31.89
2023-11-20T08:24:00,atd,33.50
2023-11-20T08:25:00,atd,34.11
2023-11-20T08:26:00,atd,33.83
2023-11-20T08:27:00,atd,32.00
2023-11-20T08:28:00,atd,33.75
2023-11-20T08:29:00,atd,27.88
2023-11-20T08:30:00,atd,30.62
2023-11-20T08:31:00,atd,29.29
2023-11-20T08:32:00,atd,31.47
2023-11-20T08:33:00,atd,32.16
2023-11-20T08:34:00,atd,29.32
2023-11-20T08:35:00,atd,42.85
2023-11-20T08:36:00,atd,30.60
2023-11-20T08:37:00,atd,34.56
2023-11-20T08:38:00,atd,33.94
2023-11-20T08:39:00,atd,36.84
2023-11-20T08:40:00,atd,34.56
2023-11-20T08:41:00,atd,34.95
2023-11-20T08:42:00,atd,36.83
2023-11-20T08:43:00,atd,37.44
2023-11-20T08:44:00,atd,37.83
2023-11-20T08:45:00,atd,37.55
2023-11-20T08:46:00,atd,36.20
2023-11-20T08:47:00,atd,38.23
2023-11-20T08:48:00,atd,34.84
2023-11-20T08:49:00,atd,34.07
2023-11-20T08:50:00,atd,34.96
2023-11-20T08:51:00,atd,30.56
2023-11-20T08:52:00,atd,31.87
2023-11-20T08:53:00,atd,29.37
2023-11-20T08:54:00,atd,32.95
2023-11-20T08:55:00,atd,47.70
2023-11-20T08:56:00,atd,47.68
2023-11-20T08:57:00,atd,44.67
2023-11-20T08:58:00,atd,35.09
2023-11-20T08:59:00,atd,48.28
2023-11-20T09:00:00,atd,47.34
2023-11-20T09:01:00,atd,36.24
2023-11-20T09:02:00,atd,33.68
2023-11-20T09:03:00,atd,36.34
2023-11-20T09:04:00,atd,34.99
2023-11-20T09:05:00,atd,33.83
2023-11-20T09:06:00,atd,31.78
2023-11-20T09:07:00,atd,37.00
2023-11-20T09:08:00,atd,33.65
2023-11-20T09:09:00,atd,29.57
2023-11-20T09:10:00,atd,28.67
2023-11-20T09:11:00,atd,32.95
2023-11-20T09:12:00,atd,30.63
2023-11-20T09:13:00,atd,31.00
2023-11-20T09:14:00,atd,32.05
2023-11-20T09:15:00,atd,38.50
2023-11-20T09:16:00,atd,35.85
2023-11-20T09:17:00,atd,38.27
2023-11-20T09:18:00,atd,35.97
2023-11-20T09:19:00,atd,33.09
2023-11-20T09:20:00,atd,33.94
2023-11-20T09:21:00,atd,33.49
2023-11-20T09:22:00,atd,35.47
2023-11-20T09:23:00,atd,28.88
2023-11-20T09:24:00,atd,29.80
2023-11-20T09:25:00,atd,30.36
2023-11-20T09:26:00,atd,32.64
2023-11-20T09:27:00,atd,24.34
2023-11-20T09:28:00,atd,27.99
2023-11-20T09:29:00,atd,45.05
2023-11-20T09:30:00,atd,37.38
2023-11-20T09:31:00,atd,39.90
2023-11-20T09:32:00,atd,38.89
2023-11-20T09:33:00,atd,39.10
2023-11-20T09:34:00,atd,37.75
2023-11-20T09:35:00,atd,36.77
2023-11-20T09:36:00,atd,32.46
2023-11-20T09:37:00,atd,43.52
2023-11-20T09:38:00,atd,35.11
2023-11-20T09:39:00,atd,30.92
2023-11-20T09:40:00,atd,32.44
2023-11-20T09:41:00,atd,32.46
2023-11-20T09:42:00,atd,35.24
2023-11-20T09:43:00,atd,32.80
2023-11-20T09:44:00,atd,50.93
2023-11-20T09:45:00,atd,33.84
2023-11-20T09:46:00,atd,34.79
2023-11-20T09:47:00,atd,49.59
2023-11-20T09:48:00,atd,40.43
2023-11-20T09:49:00,atd,40.81
2023-11-20T09:50:00,atd,43.55
2023-11-20T09:51:00,atd,39.89
2023-11-20T09:52:00,atd,39.40
2023-11-20T09:53:00,atd,39.62
2023-11-20T09:54:00,atd,38.73
2023-11-20T09:55:00,atd,39.64
2023-11-20T09:56:00,atd,38.39
2023-11-20T09:57:00,atd,40.34
2023-11-20T09:58:00,atd,39.98
2023-11-20T09:59:00,atd,38.15
2023-11-20T10:00:00,atd,41.39
2023-11-20T10:01:00,atd,42.82
2023-11-20T10:02:00,atd,44.90
2023-11-20T10:03:00,atd,52.90
2023-11-20T10:04:00,atd,51.68
2023-11-20T10:05:00,atd,67.03
2023-11-20T10:06:00,atd,48.45
2023-11-20T10:07:00,atd,49.48
2023-11-20T10:08:00,atd,50.93
2023-11-20T10:09:00,atd,53.04
2023-11-20T10:10:00,atd,48.95
2023-11-20T10:11:00,atd,48.03
2023-11-20T10:12:00,atd,46.13
2023-11-20T10:13:00,atd,42.15
2023-11-20T10:14:00,atd,42.18
2023-11-20T10:15:00,atd,39.78
2023-11-20T10:16:00,atd,40.16
2023-11-20T10:17:00,atd,43.25
2023-11-20T10:18:00,atd,37.90
2023-11-20T10:19:00,atd,38.60
2023-11-20T10:20:00,atd,39.75
2023-11-20T10:21:00,atd,37.23
2023-11-20T10:22:00,atd,40.50
2023-11-20T10:23:00,atd,51.89
2023-11-20T10:24:00,atd,42.97
2023-11-20T10:25:00,atd,40.41
2023-11-20T10:26:00,atd,38.17
2023-11-20T10:27:00,atd,37.01
2023-11-20T10:28:00,atd,36.31
2023-11-20T10:29:00,atd,37.08
2023-11-20T10:30:00,atd,35.94
2023-11-20T10:31:00,atd,33.38
2023-11-20T10:32:00,atd,35.51
2023-11-20T10:33:00,atd,51.11
2023-11-20T10:34:00,atd,34.27
2023-11-20T10:35:00,atd,31.71
2023-11-20T10:36:00,atd,34.13
2023-11-20T10:37:00,atd,32.52
2023-11-20T10:38:00,atd,33.23
2023-11-20T10:39:00,atd,33.38
2023-11-20T10:40:00,atd,34.35
2023-11-20T10:41:00,atd,37.23
2023-11-20T10:42:00,atd,45.37
2023-11-20T10:43:00,atd,33.97
2023-11-20T10:44:00,atd,35.89
2023-11-20T10:45:00,atd,35.95
2023-11-20T10:46:00,atd,29.09
2023-11-20T10:47:00,atd,29.43
2023-11-20T10:48:00,atd,27.12
2023-11-20T10:49:00,atd,29.66
2023-11-20T10:50:00,atd,29.28
2023-11-20T10:51:00,atd,27.93
2023-11-20T10:52:00,atd,29.14
2023-11-20T10:53:00,atd,29.94
2023-11-20T10:54:00,atd,28.10
2023-11-20T10:55:00,atd,33.31
2023-11-20T10:56:00,atd,33.97
2023-11-20T10:57:00,atd,30.12
2023-11-20T10:58:00,atd,37.60
2023-11-20T10:59:00,atd,40.75
2023-11-20T11:00:00,atd,49.55
2023-11-20T11:01:00,atd,40.29
2023-11-20T11:02:00,atd,29.86
2023-11-20T11:03:00,atd,28.29
2023-11-20T11:04:00,atd,30.85
2023-11-20T11:05:00,atd,28.67
2023-11-20T11:06:00,atd,28.06
2023-11-20T11:07:00,atd,28.60
2023-11-20T11:08:00,atd,27.41
2023-11-20T11:09:00,atd,26.75
2023-11-20T11:10:00,atd,38.62
2023-11-20T11:11:00,atd,38.55
2023-11-20T11:12:00,atd,40.51
2023-11-20T11:13:00,atd,45.00
2023-11-20T11:14:00,atd,35.77
2023-11-20T11:15:00,atd,32.89
2023-11-20T11:16:00,atd,29.42
2023-11-20T11:17:00,atd,31.46
2023-11-20T11:18:00,atd,35.27
2023-11-20T11:19:00,atd,30.58
2023-11-20T11:20:00,atd,32.65
2023-11-20T11:21:00,atd,28.77
2023-11-20T11:22:00,atd,30.43
2023-11-20T11:23:00,atd,30.61
2023-11-20T11:24:00,atd,29.37
2023-11-20T11:25:00,atd,27.36
2023-11-20T11:26:00,atd,27.57
2023-11-20T11:27:00,atd,27.13
2023-11-20T11:28:00,atd,25.74
2023-11-20T11:29:00,atd,27.97
2023-11-20T11:30:00,atd,32.07
2023-11-20T11:31:00,atd,39.34
2023-11-20T11:32:00,atd,35.26
2023-11-20T11:33:00,atd,30.95
2023-11-20T11:34:00,atd,30.77
2023-11-20T11:35:00,atd,30.69
2023-11-20T11:36:00,atd,25.88
2023-11-20T11:37:00,atd,25.91
2023-11-20T11:38:00,atd,28.94
2023-11-20T11:39:00,atd,28.30
2023-11-20T11:40:00,atd,29.59
2023-11-20T11:41:00,atd,26.86
2023-11-20T11:42:00,atd,25.46
2023-11-20T11:43:00,atd,24.88
2023-11-20T11:44:00,atd,28.17
2023-11-20T11:45:00,atd,26.49
2023-11-20T11:46:00,atd,28.14
2023-11-20T11:47:00,atd,29.32
2023-11-20T11:48:00,atd,27.93
2023-11-20T11:49:00,atd,28.90
2023-11-20T11:50:00,atd,30.03
2023-11-20T11:51:00,atd,30.13
2023-11-20T11:52:00,atd,28.81
2023-11-20T11:53:00,atd,28.38
2023-11-20T11:54:00,atd,30.31
2023-11-20T11:55:00,atd,37.66
2023-11-20T11:56:00,atd,27.06
2023-11-20T11:57:00,atd,29.08
2023-11-20T11:58:00,atd,32.00
2023-11-20T11:59:00,atd,28.16
2023-11-20T12:00:00,atd,27.84
2023-11-20T12:01:00,atd,27.15
2023-11-20T12:02:00,atd,29.34
2023-11-20T12:03:00,atd,27.87
2023-11-20T12:04:00,atd,31.32
2023-11-20T12:05:00,atd,30.64
2023-11-20T12:06:00,atd,29.03
2023-11-20T12:07:00,atd,28.77
2023-11-20T12:08:00,atd,30.92
2023-11-20T12:09:00,atd,28.22
2023-11-20T12:10:00,atd,25.66
2023-11-20T12:11:00,atd,25.36
2023-11-20T12:12:00,atd,25.67
2023-11-20T12:13:00,atd,40.06
2023-11-20T12:14:00,atd,26.56
2023-11-20T12:15:00,atd,27.19
2023-11-20T12:16:00,atd,26.66
2023-11-20T12:17:00,atd,27.61
2023-11-20T12:18:00,atd,24.72
2023-11-20T12:19:00,atd,25.19
2023-11-20T12:20:00,atd,28.74
2023-11-20T12:21:00,atd,28.03
2023-11-20T12:22:00,atd,34.56
2023-11-20T12:23:00,atd,32.41
2023-11-20T12:24:00,atd,33.60
2023-11-20T12:25:00,atd,33.40
2023-11-20T12:26:00,atd,28.90
2023-11-20T12:27:00,atd,30.26
2023-11-20T12:28:00,atd,28.41
2023-11-20T12:29:00,atd,27.26
2023-11-20T12:30:00,atd,25.37
2023-11-20T12:31:00,atd,25.20
2023-11-20T12:32:00,atd,26.09
2023-11-20T12:33:00,atd,26.72
2023-11-20T12:34:00,atd,25.81
2023-11-20T12:35:00,atd,26.58
2023-11-20T12:36:00,atd,26.36
2023-11-20T12:37:00,atd,28.20
2023-11-20T12:38:00,atd,30.15
2023-11-20T12:39:00,atd,30.51
2023-11-20T12:40:00,atd,29.48
2023-11-20T12:41:00,atd,30.73
2023-11-20T12:42:00,atd,31.37
2023-11-20T12:43:00,atd,27.91
2023-11-20T12:44:00,atd,27.64
2023-11-20T12:45:00,atd,27.59
2023-11-20T12:46:00,atd,25.43
2023-11-20T12:47:00,atd,28.19
2023-11-20T12:48:00,atd,31.79
2023-11-20T12:49:00,atd,25.60
2023-11-20T12:50:00,atd,37.93
2023-11-20T12:51:00,atd,25.13
2023-11-20T12:52:00,atd,25.23
2023-11-20T12:53:00,atd,24.05
2023-11-20T12:54:00,atd,40.25
2023-11-20T12:55:00,atd,39.12
2023-11-20T12:56:00,atd,40.05
2023-11-20T12:57:00,atd,37.09
2023-11-20T12:58:00,atd,41.43
2023-11-20T12:59:00,atd,27.70
2023-11-20T13:00:00,atd,24.94
2023-11-20T13:01:00,atd,24.00
2023-11-20T13:02:00,atd,29.71
2023-11-20T13:03:00,atd,33.16
2023-11-20T13:04:00,atd,30.29
2023-11-20T13:05:00,atd,29.81
2023-11-20T13:06:00,atd,34.91
2023-11-20T13:07:00,atd,47.13
2023-11-20T13:08:00,atd,33.39
2023-11-20T13:09:00,atd,31.28
2023-11-20T13:10:00,atd,32.34
2023-11-20T13:11:00,atd,32.23
2023-11-20T13:12:00,atd,30.76
2023-11-20T13:13:00,atd,30.89
2023-11-20T13:14:00,atd,32.27
2023-11-20T13:15:00,atd,34.66
2023-11-20T13:16:00,atd,31.71
2023-11-20T13:17:00,atd,29.88
2023-11-20T13:18:00,atd,33.74